AD8BW Weather Reports


Display with metric or nautical units.
time (UTC)temp
F
wind
direction
speed
MPH
gust
MPH
rain 1hr
in
rain 24hr
in
rain mn
in
humidity
%
barometer
mb
20260902194636 92 206 2.0 12.0 0.00 0.00 0.00 59 1012.8
20260902193632 92 355 2.0 12.0 0.00 0.00 0.00 58 1012.9
20260902192633 91 271 4.0 11.0 0.00 0.00 0.00 57 1013.1
20260902191634 92 355 4.0 9.0 0.00 0.00 0.00 54 1013.3
20260902190631 91 169 4.0 11.0 0.00 0.00 0.00 55 1013.3
20260902185635 92 333 2.0 9.0 0.00 0.00 0.00 57 1013.3
20260902184634 92 261 4.0 9.0 0.00 0.00 0.00 57 1013.3
20260902183633 92 225 2.0 11.0 0.00 0.00 0.00 58 1013.3
20260902182629 91 311 2.0 14.0 0.00 0.00 0.00 61 1013.3
20260902181628 91 203 4.0 14.0 0.00 0.00 0.00 60 1013.4
20260902180630 91 265 2.0 9.0 0.00 0.00 0.00 61 1013.3
20260902175628 90 196 5.0 16.0 0.00 0.00 0.00 62 1013.3
20260902174628 90 244 4.0 11.0 0.00 0.00 0.00 63 1013.6
20260902173625 89 161 2.0 7.0 0.00 0.00 0.00 66 1013.8
20260902172625 89 310 4.0 9.0 0.00 0.00 0.00 63 1013.9
20260902171623 89 275 4.0 9.0 0.00 0.00 0.00 64 1014.2
20260902170630 89 247 2.0 11.0 0.00 0.00 0.00 67 1014.4
20260902165621 88 300 4.0 7.0 0.00 0.00 0.00 69 1014.4
20260902164621 88 283 2.0 4.0 0.00 0.00 0.00 69 1014.5
20260902163621 88 341 4.0 7.0 0.00 0.00 0.00 68 1014.7
20260902162622 88 184 4.0 11.0 0.00 0.00 0.00 70 1014.7
20260902161625 88 334 4.0 14.0 0.00 0.00 0.00 68 1014.7
20260902160622 87 344 4.0 16.0 0.00 0.00 0.00 67 1014.6
20260902155622 88 227 2.0 9.0 0.00 0.00 0.00 67 1014.6
20260902154624 88 250 2.0 9.0 0.00 0.00 0.00 68 1014.4
20260902153619 88 177 4.0 11.0 0.00 0.00 0.00 69 1014.3
20260902152619 87 269 2.0 9.0 0.00 0.00 0.00 71 1014.3
20260902151624 86 323 2.0 7.0 0.00 0.00 0.00 71 1014.3
20260902150618 86 313 2.0 9.0 0.00 0.00 0.00 71 1014.3
20260902145616 85 240 2.0 7.0 0.00 0.00 0.00 74 1014.3
20260902144620 85 233 2.0 9.0 0.00 0.00 0.00 75 1014.3
20260902143621 84 254 0.0 9.0 0.00 0.00 0.00 77 1014.2
20260902142618 83 200 0.0 4.0 0.00 0.00 0.00 79 1014.3
20260902141622 83 188 0.0 9.0 0.00 0.00 0.00 81 1014.2
20260902140618 82 186 0.0 4.0 0.00 0.00 0.00 83 1014.3
20260902135614 81 188 2.0 7.0 0.00 0.00 0.00 83 1014.2
20260902134612 80 193 2.0 9.0 0.00 0.00 0.00 85 1014.3
20260902133612 80 175 2.0 7.0 0.00 0.00 0.00 87 1014.4
20260902132614 79 173 0.0 5.0 0.00 0.00 0.00 89 1014.5
20260902131614 78 225 2.0 9.0 0.00 0.00 0.00 90 1014.4
20260902130614 78 171 2.0 9.0 0.00 0.00 0.00 91 1014.4
20260902125618 77 176 2.0 7.0 0.00 0.00 0.00 92 1014.4
20260902124610 77 174 2.0 9.0 0.00 0.00 0.00 92 1014.4
20260902123607 76 165 0.0 5.0 0.00 0.00 0.00 93 1014.5
20260902122607 76 212 0.0 0.0 0.00 0.00 0.00 93 1014.4
20260902121607 76 188 0.0 2.0 0.00 0.00 0.00 92 1014.4
20260902120608 76 178 0.0 4.0 0.00 0.00 0.00 92 1014.4
20260902115608 76 274 0.0 4.0 0.00 0.00 0.00 92 1014.3
20260902114608 76 173 2.0 9.0 0.00 0.00 0.00 92 1014.2
20260902113608 76 160 0.0 7.0 0.00 0.00 0.00 92 1014.2
20260902112629 76 148 0.0 2.0 0.00 0.00 0.00 92 1014.1
20260902111604 76 170 0.0 4.0 0.00 0.00 0.00 92 1014.0
20260902110605 76 178 0.0 5.0 0.00 0.00 0.00 93 1014.1
20260902105601 76 315 2.0 7.0 0.00 0.00 0.00 93 1014.4
20260902104603 76 326 2.0 9.0 0.00 0.00 0.00 93 1014.7
20260902103602 76 304 0.0 5.0 0.00 0.00 0.00 93 1014.6
20260902102601 76 277 0.0 7.0 0.00 0.00 0.00 92 1014.4
20260902101602 76 323 0.0 4.0 0.00 0.00 0.00 92 1014.4
20260902100605 76 234 0.0 2.0 0.00 0.00 0.00 92 1014.0
20260902095604 76 236 0.0 2.0 0.00 0.00 0.00 92 1013.9
20260902094600 76 236 0.0 2.0 0.00 0.00 0.00 92 1014.0
20260902093558 76 236 0.0 2.0 0.00 0.00 0.00 92 1014.1
20260902092558 76 236 0.0 2.0 0.00 0.00 0.00 92 1014.2
20260902091600 76 236 0.0 2.0 0.00 0.00 0.00 92 1014.2
20260902090558 76 181 0.0 2.0 0.00 0.00 0.00 92 1014.2
20260902085600 76 184 0.0 2.0 0.00 0.00 0.00 92 1014.1
20260902084559 76 178 0.0 2.0 0.00 0.00 0.00 92 1013.9
20260902083600 76 178 0.0 9.0 0.00 0.00 0.00 92 1013.9
20260902082600 75 171 0.0 4.0 0.00 0.00 0.00 92 1013.9
20260902081557 75 188 0.0 4.0 0.00 0.00 0.00 91 1013.9
20260902080600 75 188 0.0 0.0 0.00 0.00 0.00 91 1014.0
20260902075556 75 163 0.0 0.0 0.00 0.00 0.00 91 1014.1
20260902074552 75 163 0.0 0.0 0.00 0.00 0.00 90 1014.1
20260902073556 75 163 0.0 0.0 0.00 0.00 0.00 90 1013.9
20260902072554 75 163 0.0 0.0 0.00 0.00 0.00 90 1013.7
20260902071554 75 163 0.0 0.0 0.00 0.00 0.00 90 1013.8
20260902070552 75 163 0.0 0.0 0.00 0.00 0.00 89 1013.9
20260902065554 75 163 0.0 0.0 0.00 0.00 0.00 89 1013.8
20260902064551 75 163 0.0 0.0 0.00 0.00 0.00 89 1013.8
20260902063552 76 163 0.0 0.0 0.00 0.00 0.00 89 1013.9
20260902062550 76 163 0.0 0.0 0.00 0.00 0.00 89 1014.2
20260902061551 76 163 0.0 0.0 0.00 0.00 0.00 89 1014.2
20260902060551 76 163 0.0 0.0 0.00 0.00 0.00 89 1014.3
20260902055556 76 163 0.0 2.0 0.00 0.00 0.00 88 1014.4
20260902054553 76 163 0.0 0.0 0.00 0.00 0.00 88 1014.5
20260902053553 76 163 0.0 0.0 0.00 0.00 0.00 88 1014.6
20260902052547 76 163 0.0 0.0 0.00 0.00 0.00 88 1014.6
20260902051544 76 163 0.0 2.0 0.00 0.00 0.00 88 1014.6
20260902050546 77 163 0.0 4.0 0.00 0.00 0.00 88 1014.7
20260902045545 77 187 0.0 0.0 0.00 0.00 0.00 87 1014.7
20260902044547 77 187 0.0 0.0 0.00 0.00 0.00 87 1014.7
20260902043544 77 180 0.0 0.0 0.00 0.00 0.00 86 1014.6
20260902042543 77 180 0.0 0.0 0.00 0.00 0.00 86 1014.5
20260902041546 78 180 0.0 0.0 0.00 0.00 0.00 86 1014.5
20260902040545 78 180 0.0 0.0 0.00 0.00 0.00 86 1014.4
20260902035537 78 180 0.0 0.0 0.00 0.00 0.00 85 1014.5
20260902034539 78 180 0.0 0.0 0.00 0.00 0.00 85 1014.5
20260902033537 78 180 0.0 0.0 0.00 0.00 0.00 85 1014.4
20260902032542 79 180 0.0 0.0 0.00 0.00 0.00 85 1014.4
20260902031538 79 180 0.0 0.0 0.00 0.00 0.00 85 1014.4
20260902030541 79 180 0.0 0.0 0.00 0.00 0.00 84 1014.2
20260902025538 80 180 0.0 0.0 0.00 0.00 0.00 84 1014.1
20260902024540 80 180 0.0 0.0 0.00 0.00 0.00 84 1014.1
20260902023536 80 174 0.0 0.0 0.00 0.00 0.00 83 1014.2
20260902022541 81 174 0.0 0.0 0.00 0.00 0.00 83 1014.2
20260902021556 81 174 0.0 0.0 0.00 0.00 0.00 83 1014.0
20260902020547 81 174 0.0 0.0 0.00 0.00 0.00 82 1014.1
20260902015531 81 174 0.0 4.0 0.00 0.00 0.00 82 1014.2
20260902014532 82 195 0.0 4.0 0.00 0.00 0.00 82 1014.3
20260902013533 82 174 0.0 4.0 0.00 0.00 0.00 82 1014.3
20260902012533 82 316 0.0 5.0 0.00 0.00 0.00 82 1014.2
20260902011532 83 187 0.0 2.0 0.00 0.00 0.00 81 1014.2
20260902010530 83 189 0.0 5.0 0.00 0.00 0.00 81 1014.0
20260902005530 83 179 0.0 7.0 0.00 0.00 0.00 81 1014.0
20260902004532 83 177 0.0 7.0 0.00 0.00 0.00 80 1013.8
20260902003524 83 232 0.0 7.0 0.00 0.00 0.00 79 1013.7
20260902002525 84 173 0.0 0.0 0.00 0.00 0.00 79 1013.7
20260902001526 84 173 0.0 0.0 0.00 0.00 0.00 79 1013.6
20260902000523 84 173 0.0 0.0 0.00 0.00 0.00 78 1013.7
20260901235523 84 173 0.0 0.0 0.00 0.00 0.00 78 1013.8
20260901234524 84 173 0.0 0.0 0.00 0.00 0.00 78 1013.8
20260901233528 85 173 0.0 2.0 0.00 0.00 0.00 77 1013.8
20260901232524 85 175 0.0 2.0 0.00 0.00 0.00 76 1013.9
20260901231528 85 229 0.0 2.0 0.00 0.00 0.00 75 1013.9
20260901230518 86 229 0.0 5.0 0.00 0.00 0.00 74 1013.9
20260901225516 86 244 2.0 7.0 0.00 0.00 0.00 73 1013.8
20260901224516 87 181 2.0 5.0 0.00 0.00 0.00 72 1013.8
20260901223518 87 154 2.0 7.0 0.00 0.00 0.00 72 1013.8
20260901222516 87 203 2.0 5.0 0.00 0.00 0.00 72 1013.8
20260901221518 87 232 2.0 7.0 0.00 0.00 0.00 71 1013.7
20260901220516 87 158 2.0 7.0 0.00 0.00 0.00 70 1013.6
20260901215519 87 165 2.0 7.0 0.00 0.00 0.00 71 1013.6
20260901214521 87 260 2.0 7.0 0.00 0.00 0.00 70 1013.5
20260901213516 87 203 2.0 9.0 0.00 0.00 0.00 70 1013.6
20260901212521 87 180 2.0 7.0 0.00 0.00 0.00 72 1013.7
20260901211518 87 191 2.0 7.0 0.00 0.00 0.00 70 1013.7
20260901210516 87 169 4.0 12.0 0.00 0.00 0.00 69 1013.8
20260901205516 88 270 2.0 11.0 0.00 0.00 0.00 69 1013.7
20260901204513 88 211 4.0 11.0 0.00 0.00 0.00 69 1013.7
20260901203515 88 190 2.0 11.0 0.00 0.00 0.00 70 1013.8
20260901202513 87 157 2.0 9.0 0.00 0.00 0.00 70 1013.9
20260901201516 88 180 4.0 9.0 0.00 0.00 0.00 70 1013.9
20260901200513 87 151 2.0 9.0 0.00 0.00 0.00 71 1013.8
20260901195512 87 221 2.0 9.0 0.00 0.00 0.00 71 1013.9